HXMT (HUIYAN)

Last updated on Sat Sep 05 2026 00:02:09 GMT+0000 (Coordinated Universal Time)

1 42758U 17034A 26247.71110596 .00002370 00000+0 12103-3 0 9993 2 42758 43.0139 100.0283 0032638 289.2406 70.4913 15.19054405509759
UTC large
Height (km)
Speed (km/s)
/
Latitude / Longitude
Inclination (degrees)
Orbital Period (minutes)
Azimuth
Elevation
Range (km)
Doppler Factor

Next 0 passes for location: London (51.5072 / 0.1276)

No passes found over London.
HXMT (HUIYAN)